Location: Poughquag
(41.6090°N, 73.6820°W)
Time: 02:16:22
(UTC-05:00)

A-11 Canister half - Visible Passes

Search period start: 17 February 2020 00:00
Search period end: 27 February 2020 00:00
Orbit: 1525 x 1684 km, 47.3° (Epoch: 17 February)

Date Brightness Start Highest point End Pass type
(mag) Time Alt. Az. Time Alt. Az. Time Alt. Az.
17 Feb 11.1 19:21:33 10° W 19:27:47 20° SW 19:34:09 10° S visible
18 Feb 11.1 18:59:43 10° W 19:06:14 21° SW 19:12:52 10° S visible
19 Feb 11.1 18:37:55 10° W 18:44:40 23° SW 18:51:33 10° S visible
20 Feb 11.1 18:16:08 10° W 18:23:07 24° SW 18:30:14 10° S visible
21 Feb 11.1 17:54:22 10° WNW 18:01:33 26° SW 18:08:52 10° S visible
25 Feb 11.7 06:07:49 10° SSE 06:11:37 13° ESE 06:15:22 10° E visible
26 Feb 11.7 05:47:02 10° SE 05:50:04 12° ESE 05:53:04 10° ESE visible
